TimeEST,TemperatureF,Dew PointF,Humidity,Sea Level PressureIn,VisibilityMPH,Wind Direction,Wind SpeedMPH,Gust SpeedMPH,PrecipitationIn,Events,Conditions,WindDirDegrees,DateUTC
12:52 AM,33.1,26.1,75,30.27,10.0,ENE,10.4,-,N/A,,Mostly Cloudy,70,2012-12-06 05:52:00
1:52 AM,30.9,26.1,82,30.26,10.0,East,6.9,-,N/A,,Scattered Clouds,80,2012-12-06 06:52:00
2:52 AM,30.0,26.1,85,30.25,10.0,East,8.1,-,N/A,,Partly Cloudy,90,2012-12-06 07:52:00
3:52 AM,30.0,26.1,85,30.22,10.0,East,8.1,-,N/A,,Mostly Cloudy,80,2012-12-06 08:52:00
4:52 AM,30.0,26.1,85,30.21,10.0,East,4.6,-,N/A,,Partly Cloudy,90,2012-12-06 09:52:00
5:52 AM,30.9,26.1,82,30.21,10.0,ENE,5.8,-,N/A,,Scattered Clouds,70,2012-12-06 10:52:00
6:52 AM,30.0,25.0,82,30.22,10.0,East,6.9,-,N/A,,Partly Cloudy,90,2012-12-06 11:52:00
7:52 AM,28.9,25.0,85,30.21,7.0,ENE,5.8,-,N/A,,Scattered Clouds,70,2012-12-06 12:52:00
8:52 AM,32.0,27.0,82,30.20,9.0,East,6.9,-,N/A,,Mostly Cloudy,90,2012-12-06 13:52:00
9:52 AM,35.1,28.9,78,30.19,10.0,East,8.1,-,N/A,,Mostly Cloudy,100,2012-12-06 14:52:00
10:52 AM,37.9,30.9,76,30.19,10.0,SE,4.6,-,N/A,,Mostly Cloudy,140,2012-12-06 15:52:00
11:52 AM,42.1,33.1,70,30.14,10.0,ESE,5.8,-,N/A,,Mostly Cloudy,120,2012-12-06 16:52:00
12:52 PM,45.0,35.1,68,30.11,10.0,SE,6.9,-,N/A,,Overcast,130,2012-12-06 17:52:00
1:52 PM,46.9,35.1,63,30.07,10.0,ESE,5.8,-,N/A,,Overcast,120,2012-12-06 18:52:00
2:52 PM,48.0,36.0,63,30.05,10.0,SSE,8.1,-,N/A,,Overcast,150,2012-12-06 19:52:00
3:52 PM,48.0,37.0,66,30.05,10.0,South,4.6,-,N/A,,Overcast,170,2012-12-06 20:52:00
4:52 PM,46.9,37.0,68,30.04,10.0,South,6.9,-,N/A,,Overcast,170,2012-12-06 21:52:00
5:52 PM,46.9,37.0,68,30.03,10.0,SSE,6.9,-,N/A,,Overcast,150,2012-12-06 22:52:00
6:13 PM,46.4,37.4,71,30.02,10.0,SSE,4.6,-,N/A,,Overcast,160,2012-12-06 23:13:00
6:42 PM,46.4,39.2,76,30.02,9.0,South,9.2,-,0.00,Rain,Light Rain,180,2012-12-06 23:42:00
6:52 PM,46.9,41.0,80,30.04,7.0,South,6.9,-,0.00,Rain,Light Rain,170,2012-12-06 23:52:00
7:52 PM,46.0,44.1,93,30.04,9.0,Calm,Calm,-,0.00,,Overcast,0,2012-12-07 00:52:00
8:10 PM,46.4,42.8,87,30.01,9.0,Calm,Calm,-,0.00,,Light Drizzle,0,2012-12-07 01:10:00
8:24 PM,46.4,44.6,93,30.01,6.0,Calm,Calm,-,0.01,,Light Drizzle,0,2012-12-07 01:24:00
8:52 PM,46.0,44.1,93,30.01,9.0,Calm,Calm,-,0.02,,Overcast,0,2012-12-07 01:52:00
9:13 PM,46.4,44.6,93,30.00,8.0,ESE,4.6,-,N/A,,Overcast,120,2012-12-07 02:13:00
9:52 PM,46.9,45.0,93,30.00,6.0,SE,5.8,-,0.00,,Light Drizzle,140,2012-12-07 02:52:00
10:52 PM,46.9,46.9,100,29.99,5.0,South,3.5,-,0.00,,Light Drizzle,180,2012-12-07 03:52:00
11:52 PM,48.9,46.9,93,29.98,6.0,South,6.9,-,0.00,Rain,Light Rain,190,2012-12-07 04:52:00